When you browse on this site, cookies collect data to enhance your experience and personalize the content and advertising you see.
Visit our Privacy Policy to learn more. By continuing to use the site, you agree to this use of cookies and data.

Hourly Weather Garmisch-Partenkirchen

Today, 8 August, Saturday

Time Temperature Precipitation Wind Pressure Humidity
00:00 +16°C° 0 mm 1 mps 680 mmHg 91%
01:00 +15°C° 0 mm 1 mps 680 mmHg 88%
02:00 +15°C° 0 mm 1 mps 680 mmHg 88%
03:00 +15°C° 0 mm 1 mps 680 mmHg 89%
04:00 +15°C° 0 mm 1 mps 680 mmHg 89%
05:00 +16°C° 0 mm 1 mps 680 mmHg 85%
06:00 +18°C° 0 mm 1 mps 681 mmHg 81%
07:00 +20°C° 0 mm 1 mps 681 mmHg 77%
08:00 +22°C° 0 mm 1 mps 681 mmHg 68%
09:00 +25°C° 0 mm 1 mps 682 mmHg 59%
10:00 +27°C° 0 mm 1 mps 682 mmHg 50%
11:00 +28°C° 0 mm 1 mps 682 mmHg 47%
12:00 +28°C° 0 mm 1 mps 682 mmHg 43%
13:00 +29°C° 0 mm 2 mps 682 mmHg 40%
14:00 +29°C° 0 mm 2 mps 682 mmHg 42%
15:00 +28°C° 0 mm 2 mps 682 mmHg 45%
16:00 +28°C° 0 mm 2 mps 681 mmHg 47%
17:00 +26°C° 0 mm 2 mps 681 mmHg 59%
18:00 +24°C° 0 mm 1 mps 681 mmHg 71%
19:00 +22°C° 0 mm 1 mps 680 mmHg 83%
20:00 +21°C° 0 mm 1 mps 680 mmHg 87%
21:00 +19°C° 0 mm 1 mps 680 mmHg 90%
22:00 +16°C° 0 mm 0 mps 680 mmHg 94%
23:00 +18°C° 0 mm 1 mps 680 mmHg 94%

Tomorrow, 9 August, Sunday

Time Temperature Precipitation Wind Pressure Humidity
00:00 +18°C° 0 mm 1 mps 680 mmHg 94%
01:00 +16°C° 0 mm 1 mps 679 mmHg 94%
02:00 +16°C° 0 mm 1 mps 679 mmHg 93%
03:00 +16°C° 0 mm 1 mps 679 mmHg 93%
04:00 +15°C° 0 mm 1 mps 679 mmHg 93%
05:00 +18°C° 0 mm 1 mps 679 mmHg 90%
06:00 +19°C° 0 mm 1 mps 680 mmHg 86%
07:00 +18°C° 0 mm 0 mps 680 mmHg 83%
08:00 +22°C° 0 mm 1 mps 680 mmHg 73%
09:00 +25°C° 0 mm 1 mps 681 mmHg 62%
10:00 +27°C° 0 mm 1 mps 681 mmHg 52%
11:00 +28°C° 0 mm 2 mps 681 mmHg 48%
12:00 +28°C° 0 mm 2 mps 681 mmHg 45%
13:00 +29°C° 0 mm 2 mps 680 mmHg 41%
14:00 +28°C° 0 mm 2 mps 680 mmHg 44%
15:00 +28°C° 0 mm 2 mps 680 mmHg 46%
16:00 +27°C° 0 mm 2 mps 679 mmHg 49%
17:00 +25°C° 0.2 mm 2 mps 679 mmHg 60%
18:00 +23°C° 0.2 mm 1 mps 679 mmHg 72%
19:00 +21°C° 0.2 mm 1 mps 678 mmHg 83%
20:00 +20°C° 0 mm 1 mps 678 mmHg 86%
21:00 +19°C° 0 mm 1 mps 678 mmHg 89%
22:00 +18°C° 0 mm 1 mps 678 mmHg 92%
23:00 +16°C° 0 mm 1 mps 678 mmHg 92%

Day after tomorrow, 10 August, Monday

Time Temperature Precipitation Wind Pressure Humidity
00:00 +16°C° 0 mm 1 mps 677 mmHg 92%
01:00 +16°C° 0 mm 1 mps 677 mmHg 92%
02:00 +16°C° 0 mm 1 mps 677 mmHg 92%
03:00 +15°C° 0 mm 1 mps 677 mmHg 91%
04:00 +15°C° 0 mm 1 mps 677 mmHg 90%
05:00 +16°C° 0 mm 1 mps 677 mmHg 86%
06:00 +19°C° 0 mm 1 mps 677 mmHg 83%
07:00 +20°C° 0 mm 1 mps 677 mmHg 79%
08:00 +23°C° 0 mm 1 mps 678 mmHg 69%
09:00 +25°C° 0 mm 1 mps 678 mmHg 60%
10:00 +28°C° 0 mm 1 mps 679 mmHg 50%
11:00 +29°C° 0 mm 1 mps 679 mmHg 47%
12:00 +29°C° 0 mm 1 mps 679 mmHg 44%
13:00 +30°C° 0 mm 2 mps 679 mmHg 40%
14:00 +29°C° 0 mm 2 mps 678 mmHg 43%
15:00 +29°C° 0 mm 2 mps 678 mmHg 46%
16:00 +28°C° 0 mm 2 mps 678 mmHg 48%
17:00 +26°C° 0.6 mm 2 mps 678 mmHg 61%
18:00 +24°C° 0.6 mm 1 mps 677 mmHg 74%
19:00 +22°C° 0.6 mm 1 mps 677 mmHg 86%
20:00 +21°C° 0.2 mm 1 mps 677 mmHg 88%
21:00 +20°C° 0.2 mm 1 mps 677 mmHg 89%
22:00 +18°C° 0.2 mm 1 mps 677 mmHg 90%
23:00 +18°C° 0 mm 1 mps 677 mmHg 90%

11 August, Tuesday

Time Temperature Precipitation Wind Pressure Humidity
00:00 +18°C° 0 mm 1 mps 677 mmHg 90%
01:00 +16°C° 0 mm 1 mps 677 mmHg 89%
02:00 +16°C° 0 mm 1 mps 677 mmHg 89%
03:00 +16°C° 0 mm 1 mps 677 mmHg 88%
04:00 +16°C° 0 mm 1 mps 676 mmHg 87%
05:00 +18°C° 0 mm 1 mps 677 mmHg 85%
06:00 +19°C° 0 mm 1 mps 677 mmHg 82%
07:00 +20°C° 0 mm 1 mps 677 mmHg 80%
08:00 +23°C° 0 mm 1 mps 678 mmHg 69%
09:00 +26°C° 0 mm 1 mps 679 mmHg 57%
10:00 +29°C° 0 mm 1 mps 679 mmHg 46%
11:00 +29°C° 0 mm 1 mps 679 mmHg 44%
12:00 +30°C° 0 mm 1 mps 679 mmHg 42%
13:00 +30°C° 0 mm 2 mps 679 mmHg 41%
14:00 +29°C° 0.4 mm 2 mps 679 mmHg 48%
15:00 +28°C° 0.4 mm 2 mps 678 mmHg 56%
16:00 +27°C° 0.4 mm 2 mps 678 mmHg 64%
17:00 +25°C° 1.8 mm 1 mps 678 mmHg 72%
18:00 +23°C° 1.8 mm 1 mps 678 mmHg 80%
19:00 +20°C° 1.8 mm 0 mps 677 mmHg 87%
20:00 +21°C° 0.4 mm 1 mps 677 mmHg 88%
21:00 +20°C° 0.4 mm 1 mps 677 mmHg 89%
22:00 +19°C° 0.4 mm 1 mps 677 mmHg 90%
23:00 +19°C° 0 mm 1 mps 677 mmHg 90%

12 August, Wednesday

Time Temperature Precipitation Wind Pressure Humidity
00:00 +18°C° 0 mm 1 mps 677 mmHg 90%
01:00 +18°C° 0 mm 1 mps 677 mmHg 90%
02:00 +16°C° 0 mm 1 mps 677 mmHg 89%
03:00 +16°C° 0 mm 1 mps 676 mmHg 88%
04:00 +16°C° 0 mm 1 mps 676 mmHg 88%
05:00 +18°C° 0 mm 1 mps 676 mmHg 86%
06:00 +19°C° 0 mm 1 mps 677 mmHg 83%
07:00 +20°C° 0 mm 1 mps 677 mmHg 81%
08:00 +23°C° 0 mm 1 mps 677 mmHg 70%
09:00 +26°C° 0 mm 1 mps 678 mmHg 60%
10:00 +27°C° 0 mm 0 mps 678 mmHg 49%
11:00 +29°C° 0.1 mm 1 mps 678 mmHg 48%
12:00 +29°C° 0.1 mm 1 mps 678 mmHg 46%
13:00 +30°C° 0.1 mm 2 mps 678 mmHg 45%
14:00 +28°C° 1.1 mm 1 mps 678 mmHg 54%
15:00 +27°C° 1.1 mm 1 mps 677 mmHg 63%
16:00 +26°C° 1.1 mm 1 mps 677 mmHg 71%
17:00 +25°C° 1.2 mm 1 mps 677 mmHg 77%
18:00 +21°C° 1.2 mm 0 mps 677 mmHg 82%
19:00 +20°C° 1.2 mm 0 mps 676 mmHg 87%
20:00 +19°C° 0.1 mm 0 mps 676 mmHg 88%
21:00 +20°C° 0.1 mm 1 mps 676 mmHg 89%
22:00 +19°C° 0.1 mm 1 mps 676 mmHg 89%
23:00 +19°C° 0 mm 1 mps 676 mmHg 89%

13 August, Thursday

Time Temperature Precipitation Wind Pressure Humidity
00:00 +18°C° 0 mm 1 mps 676 mmHg 88%
01:00 +18°C° 0 mm 1 mps 676 mmHg 88%
02:00 +18°C° 0.1 mm 1 mps 676 mmHg 87%
03:00 +18°C° 0.1 mm 1 mps 676 mmHg 86%
04:00 +18°C° 0.1 mm 1 mps 676 mmHg 85%
05:00 +19°C° 0.2 mm 1 mps 676 mmHg 84%
06:00 +20°C° 0.2 mm 1 mps 676 mmHg 83%
07:00 +20°C° 0.2 mm 1 mps 677 mmHg 82%
08:00 +22°C° 0.3 mm 1 mps 677 mmHg 77%
09:00 +23°C° 0.3 mm 1 mps 677 mmHg 73%
10:00 +23°C° 0.3 mm 0 mps 678 mmHg 69%
11:00 +26°C° 0.2 mm 1 mps 678 mmHg 61%
12:00 +27°C° 0.2 mm 1 mps 678 mmHg 54%
13:00 +28°C° 0.2 mm 2 mps 678 mmHg 47%
14:00 +28°C° 0.2 mm 2 mps 677 mmHg 51%
15:00 +27°C° 0.2 mm 2 mps 677 mmHg 55%
16:00 +26°C° 0.2 mm 2 mps 677 mmHg 59%
17:00 +24°C° 1.3 mm 1 mps 676 mmHg 69%
18:00 +22°C° 1.3 mm 1 mps 676 mmHg 78%
19:00 +20°C° 1.3 mm 1 mps 676 mmHg 87%
20:00 +19°C° 0.2 mm 1 mps 676 mmHg 89%
21:00 +19°C° 0.2 mm 1 mps 676 mmHg 90%
22:00 +18°C° 0.2 mm 1 mps 676 mmHg 91%
23:00 +16°C° 0.1 mm 1 mps 676 mmHg 93%
Show more